Date,TemperatureHighF,TemperatureAvgF,TemperatureLowF,DewpointHighF,DewpointAvgF,DewpointLowF,HumidityHigh,HumidityAvg,HumidityLow,PressureMaxIn,PressureMinIn,WindSpeedMaxMPH,WindSpeedAvgMPH,GustSpeedMaxMPH,PrecipitationSumIn
2013-3-1,48.4,38.5,27.0,36.1,32.7,24.9,93,80,58,30.57,30.47,4,1,11,0.00
2013-3-2,49.8,38.7,25.2,41.2,34.7,23.4,95,86,70,30.48,30.29,3,0,11,0.00
2013-3-3,46.8,41.7,38.7,40.6,36.7,33.7,93,83,66,30.29,30.11,2,0,6,0.00
2013-3-4,45.0,38.5,29.5,36.5,33.0,26.7,91,81,69,30.11,29.77,5,2,10,0.00
2013-3-5,47.8,33.6,24.4,37.2,29.2,22.9,95,85,62,29.77,29.67,4,0,9,0.00
2013-3-6,40.5,36.8,32.2,36.2,34.0,29.8,94,90,83,29.74,29.67,6,3,12,0.02
2013-3-7,44.1,39.6,37.8,41.7,37.5,35.3,95,92,87,29.67,29.56,10,4,24,0.02
2013-3-8,37.9,37.0,36.0,36.0,35.1,34.3,95,93,90,29.72,29.56,10,7,23,0.01
2013-3-9,36.9,35.3,33.4,34.6,32.3,27.0,94,89,78,29.92,29.72,9,5,24,0.02
2013-3-10,37.8,31.5,25.2,29.7,25.8,20.2,89,79,66,30.11,29.92,10,4,22,0.02
2013-3-11,34.9,27.1,21.0,25.8,20.4,15.9,90,76,57,30.16,30.10,7,3,19,0.08
2013-3-12,39.4,28.6,16.5,29.9,22.4,13.3,89,78,66,30.16,29.92,7,1,14,0.01
2013-3-13,39.9,32.0,24.3,29.0,25.6,21.5,90,78,56,30.03,29.89,7,2,15,0.00
2013-3-14,24.3,23.3,22.1,21.6,20.8,19.5,91,90,89,30.03,30.01,0,0,1,0.00
2013-3-15,46.5,38.9,30.9,39.0,34.6,29.1,94,84,75,29.65,29.40,5,2,18,0.02
2013-3-16,34.9,33.5,30.2,33.6,32.1,28.8,95,94,92,29.41,29.23,3,1,9,0.17
2013-3-17,39.4,34.8,30.4,36.0,32.6,28.9,97,92,82,29.27,29.15,6,2,13,0.17
2013-3-18,37.6,34.3,31.5,36.1,31.8,28.5,96,91,85,29.51,29.27,9,5,22,0.25
2013-3-19,35.4,33.1,31.8,33.1,31.1,29.5,95,92,90,29.67,29.51,7,4,17,0.36
2013-3-20,35.2,32.6,28.2,31.7,29.7,26.0,94,89,83,30.08,29.67,8,4,18,0.11
2013-3-21,36.9,30.7,26.8,29.3,27.0,24.8,94,86,73,30.11,30.01,10,5,23,0.01
2013-3-22,33.4,31.9,30.2,29.4,28.2,26.6,94,86,78,30.03,29.94,14,10,34,0.01
2013-3-23,31.3,30.5,29.8,28.5,26.2,23.7,93,84,77,30.19,30.02,12,10,30,0.02
2013-3-24,34.3,31.3,29.8,26.0,24.4,23.1,81,75,66,30.30,30.18,12,9,26,0.04
2013-3-25,35.1,31.6,30.0,27.4,25.0,22.3,81,76,69,30.31,30.27,9,6,23,0.02
2013-3-26,36.0,31.4,26.2,27.7,25.5,21.7,85,78,67,30.27,30.17,8,4,18,0.01
2013-3-27,38.7,32.2,26.2,30.1,27.1,21.8,91,82,67,30.18,30.09,6,2,16,0.05
2013-3-28,38.1,32.7,29.1,28.3,26.4,23.1,91,78,65,30.12,30.06,6,3,14,0.02
2013-3-29,43.3,33.9,28.2,33.3,27.4,24.6,89,78,54,30.06,29.94,7,2,17,0.01
2013-3-30,43.9,32.1,23.4,30.1,25.6,20.9,91,78,48,30.03,29.97,5,1,11,0.00
2013-3-31,38.1,31.5,21.1,27.6,23.9,19.1,92,74,56,30.06,30.01,5,3,12,0.00